NOAA 16 DEB, 41292

Orbit data source: Space-Track

NOAA 16 DEB, 41292 is space debris in SSO originally from a launch on Thu, 21 Sep 2000 UTC launched from the Air Force Western Test Range (AFWTR). Debris objects in space refer to the collection of defunct objects orbiting the Earth. Examples of debris include non-operational satellites, rocket bodies, and fragments generated from explosions, collisions, or faulty payload assembly.

Loading next visibility...
NOAA 16 DEB details
Identifier
41292, 2000-055GU
Orbit
SSO
Last TLE update1 day ago
Origin
Flag of USNOAA (US)
ManufacturerUnknown
MissionSpacecraft
Bus & MotorUnknown
MassUnknown
Launch date (UTC)
2000-09-21 (24 years ago)
Launch vehicleUnknown
Launch site
Air Force Western Test Range (AFWTR)
Object type
Payload
Rocket body
Debris
Shape & HBRUnknown
Radar Cross SectionSmall (<0.1 m²)

Expand to show TLE details & history

TLE from 1 day ago
0 NOAA 16 DEB
1 41292U 00055GU  24347.32316051  .00014837  00000-0  41254-2 0  9990
2 41292  98.9950 173.9479 0039460 251.5365 108.1534 14.46059018467679
Epoch: 2024-12-12T07:45Z
Definitive object data (Epoch: 2024-12-12T07:45:21.068Z)
Latitude
Longitude-23.89503°
Altitude750.341 km
Speed7.475 km/s
True Right ascension11h 35m 47s
True Declination0° 00' 00"
Sunlit
Object was in daylight at TLE epoch
Visualization TLE readout
Latitude-72.35606°
Longitude6.93458°
Altitude742.68 km
Speed7.494 km/s
Apparent Right ascension18h 46m 48s
Apparent Declination-65° 36' 50"
Sunlit
Object is in daylight
Visualization observer readout
Local Sidereal Time08:28:45
Azimuth158.856° S
Elevation-60.49°
Doppler factor1
Orbital elements
Apogee altitude763.758 km
Perigee altitude707.616 km
Semi-major axis7,113.824 km
Eccentricity0.003946
Inclination98.995°
RAAN173.9479°
Arg. of periapsis251.5365°
True anomaly108.58241°
Mean anomaly108.1534°
Eccentric anomaly108.36797°
Mean motion3.61733 °/min
BSTAR0.0041254
Orbital period99.52 mins
Loading maneuver chart data...
Loading historical data...
Loading historical data...
Loading historical data...
Loading historical data...
Loading historical data...
Loading historical data...
Loading historical data...

NOAA 16 DEB Visibility forecast

Observer location: undefined°, undefined

Span
Click to sort rows by Start time (UTC) header in descending order
Start Az.
Max El. time (UTC)
Max El. Az.
Max El.
End time (UTC)
End Az.
8 mins2024-12-13 12:06:54.145Z139.772° SSE2024-12-13 12:10:54.145Z69.65° E36.228°2024-12-13 12:14:54.145Z1.273° NNE
5 mins2024-12-13 13:47:54.145Z242.709° WSW2024-12-13 13:49:54.145Z273.259° WNW18.235°2024-12-13 13:52:54.145Z310.621° NW
7 mins2024-12-14 01:51:54.145Z3.192° NNE2024-12-14 01:54:54.145Z284.154° WNW42.55°2024-12-14 01:58:54.145Z207.137° SW
|